This demonstration page uses our WeatherBlox Daily Observations layout. Learn more.

Left ArrowRight Arrow

Hourly Observations for December 1, 2022

Temp ( °F °C ) Dew Point ( °F °C ) Humidity (%) Winds ( mph kmh ) Pressure ( in mb ) Visibility ( mi km ) Precip ( " mm )
12:54 am 00:54 Clear 18 -7.8 8 -13.3 65 65 SSE 7 11 30.35 1028 10 16 0.00 0.00
1:54 am 01:54 Clear 21 -6.1 11 -11.7 64 64 SSE 9 15 30.33 1027 10 16 0.00 0.00
2:54 am 02:54 Clear 23 -5 13 -10.6 65 65 SSE 10 17 30.30 1026 10 16 0.00 0.00
4:54 am 04:54 Clear 27 -2.8 16 -8.9 63 63 SSE 13 20 30.22 1023 10 16 0.00 0.00
5:54 am 05:54 Clear 28 -2.2 16 -8.9 60 60 SSE 17 28 30.19 1022 10 16 0.00 0.00
6:54 am 06:54 Clear 32 0 17 -8.3 53 53 S 24 39 30.15 1021 10 16 0.00 0.00
7:54 am 07:54 Sunny 32 0 17 -8.3 53 53 S 24 39 30.13 1020 10 16 0.00 0.00
8:54 am 08:54 Sunny 34 1.1 17 -8.3 49 49 S 22 35 30.14 1021 10 16 0.00 0.00
9:54 am 09:54 Sunny 39 3.9 18 -7.8 42 42 S 26 43 30.11 1020 10 16 0.00 0.00
10:54 am 10:54 Sunny 43 6.1 18 -7.8 36 36 SSW 30 48 30.09 1019 10 16 0.00 0.00
11:54 am 11:54 Sunny 45 7.2 19 -7.2 35 35 SSW 25 41 30.06 1018 10 16 0.00 0.00
12:54 pm 12:54 Sunny 48 8.9 20 -6.7 32 32 SSW 25 41 30.02 1017 10 16 0.00 0.00
1:54 pm 13:54 Sunny 50 10 20 -6.7 30 30 SSW 20 31 29.98 1015 10 16 0.00 0.00
2:54 pm 14:54 Sunny 51 10.6 21 -6.1 30 30 SSW 20 31 29.95 1014 10 16 0.00 0.00
3:54 pm 15:54 Sunny 51 10.6 22 -5.6 31 31 SSW 18 30 29.93 1014 10 16 0.00 0.00
4:54 pm 16:54 Sunny 49 9.4 22 -5.6 34 34 S 16 26 29.92 1013 10 16 0.00 0.00
5:54 pm 17:54 Clear 44 6.7 22 -5.6 41 41 S 12 19 29.92 1013 10 16 0.00 0.00
7:54 pm 19:54 Clear 43 6.1 25 -3.9 49 49 S 17 28 29.90 1013 10 16 0.00 0.00
8:54 pm 20:54 Clear 43 6.1 26 -3.3 51 51 S 20 31 29.89 1012 10 16 0.00 0.00
9:54 pm 21:54 Clear 42 5.6 24 -4.4 48 48 S 17 28 29.84 1011 10 16 0.00 0.00
10:54 pm 22:54 Clear 42 5.6 22 -5.6 44 44 S 24 39 29.81 1009 10 16 0.00 0.00
11:54 pm 23:54 Clear 42 5.6 20 -6.7 41 41 S 23 37 29.78 1008 10 16 0.00 0.00

Powered by AerisWeather